Location: Newark
(33.2404°N, 35.6778°E)
Time: 23:02:49
(UTC+00:00)

Hubble Space Telescope - Pass Details

Date: 02 February 2020
Orbit: 536 x 540 km, 28.5° (Epoch: 19 February)

Event Time Altitude Azimuth Distance (km) Brightness Sun altitude
Exits shadow 03:29:24 14° 240° (WSW) 1,513 2.6 -13.6°
Maximum altitude 03:32:32 40° 175° (S) 789 1.7 -13.0°
Drops below altitude 10° 03:36:24 10° 105° (ESE) 1,778 5.0 -12.2°
Sets 03:38:45 0° 98° (E) 2,669 6.4 -11.7°
